Hourly Data Report for December 20, 2017

VICTORIA UNIVERSITY CS
BRITISH COLUMBIA

48°27'25.200" N
123°18'16.600" W
60.10 m
1018598
71783
WYJ

Download Data

Hourly Data (December 2017)
Hourly Data Report for December 20, 2017
TIME
LST
Temp Definition
°C
Dew Point Definition
°C
Rel Hum Definition
%
Precip. Amount Definition
mm

Wind Dir Definition
10's deg

Wind Spd Definition
km/h
Visibility Definition
km
Stn Press Definition
kPa
Hmdx Definition


Wind Chill Definition


Weather Definition


00:00 2.8 2.0 95 0.0 33 8   100.18     LegendNANA
01:00 2.3 1.2 93 0.0 32 7   100.29     LegendNANA
02:00 1.8 0.5 91 0.0 30 4   100.39     LegendNANA
03:00 2.1 0.6 90 0.0 32 6   100.56     LegendNANA
04:00 2.6 -0.3 81 0.0 33 14   100.74     LegendNANA
05:00 2.1 -1.1 79 0.0 31 7   100.88     LegendNANA
06:00 2.4 -1.8 74 0.0 32 10   101.02     LegendNANA
07:00 2.4 -2.6 70 0.0 32 12   101.18     LegendNANA
08:00 2.5 -2.8 68 0.0 32 12   101.30     LegendNANA
09:00 3.0 -2.0 70 0.0 35 12   101.43     LegendNANA
10:00 4.2 -1.5 66 0.0 1 12   101.58     LegendNANA
11:00 4.9 -0.6 67 0.3 1 14   101.68     LegendNANA
12:00 5.2 -1.3 63 0.0 1 13   101.82     LegendNANA
13:00 5.4 -3.0 55 0.0 1 11   101.89     LegendNANA
14:00 5.2 -3.8 52 0.0 2 10   101.97     LegendNANA
15:00 4.4 -4.9 51 0.0 2 6   102.05     LegendNANA
16:00 3.3 -4.7 56 0.0 2 6   102.11     LegendNANA
17:00 2.0 -4.1 64 0.0 1 2   102.17     LegendNANA
18:00 -0.6 -3.4 82 0.0 32 3   102.21   -2 LegendNANA
19:00 -0.7 -3.6 81 0.0 36 2   102.18   -1 LegendNANA
20:00 -0.8 -2.9 85 0.0 34 5   102.18   -2 LegendNANA
21:00 2.0 -1.2 80 0.0 34 7   102.30     LegendNANA
22:00 -0.4 -2.7 84 0.0 31 6   102.33   -2 LegendNANA
23:00 -0.9 -3.1 85 0.0 32 1   102.35   -1 LegendNANA

Notes on Data Quality.

Legend

  • E = Estimated
  • M = Missing
  • NA = Not Available*
  • [empty] = Indicates an unobserved value
Date modified: